Location: Newark
(52.4480°N, 1.4938°W)
Time: 07:22:55
(UTC+00:00)

N. Korean satellite - Visible Passes

Search period start: 23 September 2020 00:00
Search period end: 03 October 2020 00:00
Orbit: 455 x 503 km, 97.2° (Epoch: 22 September)

Date Brightness Start Highest point End Pass type
(mag) Time Alt. Az. Time Alt. Az. Time Alt. Az.
23 Sep 9.9 04:38:49 10° NE 04:40:52 14° E 04:42:56 10° ESE visible
25 Sep 8.5 05:19:06 10° NNE 05:22:32 36° E 05:25:53 10° SSE visible
26 Sep 9.7 04:53:34 10° NE 04:56:20 20° E 04:59:03 10° SE visible
27 Sep 10.3 04:28:56 10° ENE 04:30:02 11° E 04:31:07 10° ESE visible
29 Sep 9.0 05:08:32 10° NNE 05:11:43 28° E 05:14:51 10° SSE visible
30 Sep 9.8 04:43:12 10° NE 04:45:28 16° E 04:47:42 10° SE visible
02 Oct 8.2 05:23:36 10° NNE 05:27:03 40° E 05:30:25 10° S visible
